STARLINK-31033, 58723

Orbit data source: Space-Track

STARLINK-31033, 58723 is a payload satellite owned by SpaceX/Seattle (US) in LEO that was launched on Wed, 03 Jan 2024 UTC via an FALCON 9 launch vehicle from the Air Force Western Test Range (AFWTR). Payload-class satellites include a variety of spacecraft equipped with specific instruments for various scientific and technological missions. These include communications satellites like Starlink; space stations such as the ISS; scientific satellites like the Hubble; Earth observation satellites from companies like Planet Labs, Umbra, and HawkEye 360; GPS; miniature CubeSats for education and research; and military/defense satellites.

Loading next visibility...
Identifier
58723, 2024-002U
Orbit
LEO
Country
Flag of USUS
Related business
Manufacturer
SpaceX/Seattle
Mission
Operational Commercial Communications
Bus & Motor
STARLINK V2M, Unknown motor
Mass
730 kg wet, ~700 kg dry
Launch date (UTC)
2024-01-03 (2 years ago)
Launch vehicle
FALCON 9
Launch site
Air Force Western Test Range (AFWTR)
Object type
Payload
Rocket body
Debris
Shape & HBR
Box + 2 Pan, 17.7 m
Radar Cross Section
33.884 m², Large (>1 m²)

Expand to show TLE details & history
Last TLE update: 2 days ago

TLE from 2 days ago
0 STARLINK-31033
1 58723U 24002U   26171.22167365 -.00002455  00000-0 -70786-4 0  9992
2 58723  53.1601 113.6633 0001300  79.8974 280.2174 15.30194391137713
Epoch: 2026-06-20T05:19Z
TLE epoch observation values (Epoch: 2026-06-20T05:19:12.603Z)
Latitude
0.00003°
Longitude
125.42141°
Altitude
475.974 km
Speed
7.629 km/s
True Right ascension
07h 34m 39s
True Declination
0° 00' 00"
Sunlit
Object was in daylight at epoch
Visualization orbit readout
Latitude
Unknown
Longitude
Unknown
Altitude
Unknown
Speed
Unknown
Apparent Right ascension
Unknown
Apparent Declination
Unknown
Sunlit
N/A
Visualization observer readout
Local Sidereal Time
21:25:44
Azimuth
Unknown
Elevation
Unknown
Doppler factor
Unknown
Orbital elements
Apogee altitude
476.379 km
Perigee altitude
474.597 km
Semi-major axis
6,853.625 km
Eccentricity
0.00013
Inclination
53.1601°
RAAN
113.6633°
Arg. of periapsis
79.8974°
True anomaly
280.20274°
Mean anomaly
280.2174°
Eccentric anomaly
280.21007°
Mean motion
3.82527 °/min
Orbital period
94.11 mins
BSTAR
-0.000070786
Loading maneuver chart data...
Computing Atmospheric mass density...
Loading historical data...
Loading historical data...
Loading historical data...
Loading historical data...
Loading historical data...
Loading historical data...
Loading historical data...

Documentation

Showing up to 5 results
|